Погода в Большой Коренихе

Украина / Николаевская область     46°56′42″N   31°54′04″E
темп.,
°C
ветер,
м/с
пор.,
м/с
влажн.,
%
обл.,
%
осадки,
мм/ч
давл.,
гПа
погр.,
м
16 мая, вс
вс1600:00+14ююз017355 0.0 101312
03:00+14вюв1170100 0.0 101210
06:00+13всв2371100 0.0 101154
09:00+19всв3455100 0.0 1011345
12:00+23вюв3444100 0.0 10111097
15:00+23в4547100 0.0 10091380
18:00+23ссв2452100 0.0 1008244
21:00+20с3655100 0.0 1006110
17 мая, пн
пн1700:00+17св4881100 1.1 1005210
03:00+16с3797100 7.9 1004204
06:00+16с4896100 3.1 1002375
09:00+17ссв489097 4.9 1002462
12:00+21ююз237179 2.0 1002908
15:00+16з101489100 3.4 1003592
18:00+18зюз6974100 0.0 1004928
21:00+15ю4690100 0.0 1006181
18 мая, вт
вт1800:00+14ю5119089 0.0 1006349
03:00+14ю5119213 0.0 1005275
06:00+14ю51193100 0.0 1005364
09:00+17ююз5984100 0.9 1005579
12:00+15ю61095100 3.4 1005685
15:00+20ююз686438 4.4 10041231
18:00+19юз8106497 0.9 10041321
21:00+13з6118469 1.1 1006492
19 мая, ср
ср1900:00+12зюз6108184 0.0 1007718
03:00+12зюз71386100 0.1 1006916
06:00+12зюз81482100 0.1 1007959
09:00+12з81585100 0.4 1008823
12:00+17з11156095 0.2 10101833
15:00+17зсз7116417 1.1 10111359
18:00+19зсз6105475 0.5 10112027
21:00+14юз46740 0.5 101294
20 мая, чт
чт2000:00+12зюз23845 0.0 101342
03:00+12ююз228371 0.0 101323
06:00+13юв2386100 0.0 101270
09:00+15юв4670100 0.0 1011277
12:00+20вюв5748100 0.0 10101210
15:00+23вюв693885 0.0 10082470
18:00+18ююв5956100 0.2 1007458
21:00+15вюв267795 1.1 1005246